Time,TemperatureF,DewpointF,PressureIn,WindDirection,WindDirectionDegrees,WindSpeedMPH,WindSpeedGustMPH,Humidity,HourlyPrecipIn,Conditions,Clouds,dailyrainin,SoftwareType,DateUTC
2013-06-20 00:05:00,75.5,68.5,29.47,SE,141,4.0,13.0,79,0.00,,,0.00,Wunderground v.1.15,2013-06-20 05:05:00,
2013-06-20 00:15:00,75.4,68.4,29.47,SSE,160,4.0,4.0,79,0.00,,,0.00,Wunderground v.1.15,2013-06-20 05:15:00,
2013-06-20 00:20:00,75.3,68.3,29.47,South,174,4.0,13.0,79,0.00,,,0.00,Wunderground v.1.15,2013-06-20 05:20:00,
2013-06-20 00:30:00,75.3,68.3,29.47,SE,129,5.0,13.0,79,0.00,,,0.00,Wunderground v.1.15,2013-06-20 05:30:00,
2013-06-20 00:40:00,75.1,68.1,29.47,SE,129,5.0,13.0,79,0.00,,,0.00,Wunderground v.1.15,2013-06-20 05:40:00,
2013-06-20 00:50:00,75.0,68.0,29.46,SE,133,5.0,13.0,79,0.00,,,0.00,Wunderground v.1.15,2013-06-20 05:50:00,
2013-06-20 00:55:00,75.0,68.0,29.46,SE,135,6.0,6.0,79,0.00,,,0.00,Wunderground v.1.15,2013-06-20 05:55:00,
2013-06-20 01:05:00,74.8,68.2,29.46,SSE,159,5.0,13.0,80,0.00,,,0.00,Wunderground v.1.15,2013-06-20 06:05:00,
2013-06-20 01:10:00,74.7,68.1,29.46,SE,146,5.0,13.0,80,0.00,,,0.00,Wunderground v.1.15,2013-06-20 06:10:00,
2013-06-20 01:20:00,74.6,68.0,29.45,SSE,161,5.0,13.0,80,0.00,,,0.00,Wunderground v.1.15,2013-06-20 06:20:00,
2013-06-20 01:25:00,74.5,67.9,29.46,SSE,156,5.0,5.0,80,0.00,,,0.00,Wunderground v.1.15,2013-06-20 06:25:00,
2013-06-20 01:35:00,74.3,67.7,29.45,SSE,159,3.0,13.0,80,0.00,,,0.00,Wunderground v.1.15,2013-06-20 06:35:00,
2013-06-20 01:45:00,74.1,67.5,29.45,SE,124,4.0,13.0,80,0.00,,,0.00,Wunderground v.1.15,2013-06-20 06:45:00,
2013-06-20 01:55:00,74.1,67.9,29.45,SSE,150,4.0,13.0,81,0.00,,,0.00,Wunderground v.1.15,2013-06-20 06:55:00,
2013-06-20 02:05:00,74.0,67.8,29.45,SE,143,4.0,4.0,81,0.00,,,0.00,Wunderground v.1.15,2013-06-20 07:05:00,
2013-06-20 02:15:00,74.1,67.5,29.45,SSE,167,4.0,13.0,80,0.00,,,0.00,Wunderground v.1.15,2013-06-20 07:15:00,
2013-06-20 02:20:00,74.0,67.8,29.45,SE,135,4.0,13.0,81,0.00,,,0.00,Wunderground v.1.15,2013-06-20 07:20:00,
2013-06-20 02:30:00,73.8,67.6,29.45,SSE,159,4.0,13.0,81,0.00,,,0.00,Wunderground v.1.15,2013-06-20 07:30:00,
2013-06-20 02:40:00,73.6,67.4,29.44,SE,137,3.0,13.0,81,0.00,,,0.00,Wunderground v.1.15,2013-06-20 07:40:00,
2013-06-20 02:50:00,73.6,67.4,29.45,SE,139,4.0,13.0,81,0.00,,,0.00,Wunderground v.1.15,2013-06-20 07:50:00,
2013-06-20 03:05:00,73.5,67.7,29.45,SE,145,4.0,13.0,82,0.00,,,0.00,Wunderground v.1.15,2013-06-20 08:05:00,
2013-06-20 03:15:00,73.3,67.5,29.46,SE,141,4.0,4.0,82,0.00,,,0.00,Wunderground v.1.15,2013-06-20 08:15:00,
2013-06-20 03:20:00,73.2,67.4,29.46,SSE,149,3.0,5.0,82,0.00,,,0.00,Wunderground v.1.15,2013-06-20 08:20:00,
2013-06-20 03:30:00,73.3,67.5,29.45,SSE,157,4.0,13.0,82,0.00,,,0.00,Wunderground v.1.15,2013-06-20 08:30:00,
2013-06-20 03:40:00,73.2,67.4,29.45,ESE,107,5.0,13.0,82,0.00,,,0.00,Wunderground v.1.15,2013-06-20 08:40:00,
2013-06-20 03:50:00,73.2,67.4,29.45,SSE,155,5.0,13.0,82,0.00,,,0.00,Wunderground v.1.15,2013-06-20 08:50:00,
2013-06-20 04:05:00,-999.9,-99.9,29.45,North,32767,-999.0,13.0,255,-99.99,,,0.00,Wunderground v.1.15,2013-06-20 09:05:00,
2013-06-20 04:15:00,-999.9,-99.9,29.45,North,32767,-999.0,13.0,255,-99.99,,,0.00,Wunderground v.1.15,2013-06-20 09:15:00,
2013-06-20 04:20:00,-999.9,-99.9,29.46,North,32767,-999.0,13.0,255,-99.99,,,0.00,Wunderground v.1.15,2013-06-20 09:20:00,
2013-06-20 04:30:00,-999.9,-99.9,29.45,North,32767,-999.0,13.0,255,-99.99,,,0.00,Wunderground v.1.15,2013-06-20 09:30:00,
2013-06-20 04:40:00,-999.9,-99.9,29.45,North,32767,-999.0,13.0,255,-99.99,,,0.00,Wunderground v.1.15,2013-06-20 09:40:00,
2013-06-20 04:50:00,-999.9,-99.9,29.45,North,32767,-999.0,13.0,255,-99.99,,,0.00,Wunderground v.1.15,2013-06-20 09:50:00,
2013-06-20 05:05:00,-999.9,-99.9,29.46,North,32767,-999.0,13.0,255,-99.99,,,0.00,Wunderground v.1.15,2013-06-20 10:05:00,
2013-06-20 05:15:00,-999.9,-99.9,29.46,North,32767,-999.0,13.0,255,-99.99,,,0.00,Wunderground v.1.15,2013-06-20 10:15:00,
2013-06-20 05:20:00,-999.9,-99.9,29.46,North,32767,-999.0,13.0,255,-99.99,,,0.00,Wunderground v.1.15,2013-06-20 10:20:00,
2013-06-20 05:30:00,-999.9,-99.9,29.46,North,32767,-999.0,13.0,255,-99.99,,,0.00,Wunderground v.1.15,2013-06-20 10:30:00,
2013-06-20 05:40:00,-999.9,-99.9,29.46,North,32767,-999.0,13.0,255,-99.99,,,0.00,Wunderground v.1.15,2013-06-20 10:40:00,
2013-06-20 05:50:00,-999.9,-99.9,29.46,North,32767,-999.0,13.0,255,-99.99,,,0.00,Wunderground v.1.15,2013-06-20 10:50:00,
2013-06-20 06:05:00,-999.9,-99.9,29.47,North,32767,-999.0,13.0,255,-99.99,,,0.00,Wunderground v.1.15,2013-06-20 11:05:00,
2013-06-20 06:15:00,-999.9,-99.9,29.47,North,32767,-999.0,13.0,255,-99.99,,,0.00,Wunderground v.1.15,2013-06-20 11:15:00,
2013-06-20 06:25:00,-999.9,-99.9,29.47,North,32767,-999.0,13.0,255,-99.99,,,0.00,Wunderground v.1.15,2013-06-20 11:25:00,
2013-06-20 06:35:00,-999.9,-99.9,29.47,North,32767,-999.0,13.0,255,-99.99,,,0.00,Wunderground v.1.15,2013-06-20 11:35:00,
2013-06-20 06:45:00,-999.9,-99.9,29.47,North,32767,-999.0,13.0,255,-99.99,,,0.00,Wunderground v.1.15,2013-06-20 11:45:00,
2013-06-20 06:55:00,72.6,68.2,29.48,SSE,155,3.0,13.0,86,0.00,,,0.00,Wunderground v.1.15,2013-06-20 11:55:00,
2013-06-20 07:05:00,73.0,68.2,29.48,SSE,154,4.0,13.0,85,0.00,,,0.00,Wunderground v.1.15,2013-06-20 12:05:00,
2013-06-20 07:15:00,73.5,68.4,29.48,SE,129,5.0,13.0,84,0.00,,,0.00,Wunderground v.1.15,2013-06-20 12:15:00,
2013-06-20 07:20:00,73.8,68.7,29.48,South,176,5.0,13.0,84,0.00,,,0.00,Wunderground v.1.15,2013-06-20 12:20:00,
2013-06-20 07:30:00,74.3,68.8,29.49,SE,145,5.0,13.0,83,0.00,,,0.00,Wunderground v.1.15,2013-06-20 12:30:00,
2013-06-20 07:40:00,74.7,69.2,29.49,SSE,165,6.0,7.0,83,0.00,,,0.00,Wunderground v.1.15,2013-06-20 12:40:00,
2013-06-20 07:50:00,75.3,69.4,29.49,SSE,165,6.0,13.0,82,0.00,,,0.00,Wunderground v.1.15,2013-06-20 12:50:00,
2013-06-20 07:55:00,75.5,69.6,29.49,South,174,6.0,13.0,82,0.00,,,0.00,Wunderground v.1.15,2013-06-20 12:55:00,
2013-06-20 08:05:00,76.1,69.8,29.49,SSE,164,7.0,13.0,81,0.00,,,0.00,Wunderground v.1.15,2013-06-20 13:05:00,
2013-06-20 08:15:00,76.4,70.1,29.49,SSE,153,8.0,13.0,81,0.00,,,0.00,Wunderground v.1.15,2013-06-20 13:15:00,
2013-06-20 08:25:00,77.0,70.4,29.50,SSE,167,7.0,13.0,80,0.00,,,0.00,Wunderground v.1.15,2013-06-20 13:25:00,
2013-06-20 08:35:00,77.3,70.3,29.50,South,176,10.0,10.0,79,0.00,,,0.00,Wunderground v.1.15,2013-06-20 13:35:00,
2013-06-20 08:45:00,77.7,70.7,29.50,SSE,148,9.0,10.0,79,0.00,,,0.00,Wunderground v.1.15,2013-06-20 13:45:00,
2013-06-20 08:55:00,78.2,70.8,29.50,ESE,107,9.0,11.0,78,0.00,,,0.00,Wunderground v.1.15,2013-06-20 13:55:00,
2013-06-20 09:00:00,78.4,71.0,29.50,SW,222,9.0,9.0,78,0.00,,,0.00,Wunderground v.1.15,2013-06-20 14:00:00,
2013-06-20 09:10:00,78.9,71.5,29.50,SE,135,9.0,9.0,78,0.00,,,0.00,Wunderground v.1.15,2013-06-20 14:10:00,
2013-06-20 09:20:00,79.5,72.0,29.50,SSE,156,10.0,10.0,78,0.00,,,0.00,Wunderground v.1.15,2013-06-20 14:20:00,
2013-06-20 09:30:00,79.8,71.9,29.51,South,189,11.0,11.0,77,0.00,,,0.00,Wunderground v.1.15,2013-06-20 14:30:00,
2013-06-20 09:40:00,80.6,72.7,29.50,SW,228,9.0,15.0,77,0.00,,,0.00,Wunderground v.1.15,2013-06-20 14:40:00,
2013-06-20 09:45:00,81.0,72.7,29.50,SSE,161,9.0,15.0,76,0.00,,,0.00,Wunderground v.1.15,2013-06-20 14:45:00,
2013-06-20 09:55:00,81.3,73.0,29.50,ESE,122,10.0,15.0,76,0.00,,,0.00,Wunderground v.1.15,2013-06-20 14:55:00,
2013-06-20 10:00:00,81.4,72.7,29.50,SSE,153,10.0,10.0,75,0.00,,,0.00,Wunderground v.1.15,2013-06-20 15:00:00,
2013-06-20 10:10:00,81.6,72.9,29.50,SSE,162,10.0,15.0,75,0.00,,,0.00,Wunderground v.1.15,2013-06-20 15:10:00,
2013-06-20 10:15:00,82.0,73.3,29.50,SSW,204,10.0,15.0,75,0.00,,,0.00,Wunderground v.1.15,2013-06-20 15:15:00,
2013-06-20 10:25:00,82.4,73.3,29.50,SE,134,10.0,10.0,74,0.00,,,0.00,Wunderground v.1.15,2013-06-20 15:25:00,
2013-06-20 10:35:00,82.8,73.7,29.50,SSE,152,9.0,15.0,74,0.00,,,0.00,Wunderground v.1.15,2013-06-20 15:35:00,
2013-06-20 10:45:00,83.4,74.2,29.50,South,171,9.0,15.0,74,0.00,,,0.00,Wunderground v.1.15,2013-06-20 15:45:00,
2013-06-20 10:55:00,83.6,74.0,29.50,SE,138,10.0,10.0,73,0.00,,,0.00,Wunderground v.1.15,2013-06-20 15:55:00,
2013-06-20 11:05:00,84.4,74.8,29.50,SSE,156,9.0,9.0,73,0.00,,,0.00,Wunderground v.1.15,2013-06-20 16:05:00,
2013-06-20 11:10:00,84.7,74.7,29.50,South,181,9.0,15.0,72,0.00,,,0.00,Wunderground v.1.15,2013-06-20 16:10:00,
2013-06-20 11:20:00,84.9,74.9,29.50,SSE,162,10.0,12.0,72,0.00,,,0.00,Wunderground v.1.15,2013-06-20 16:20:00,
2013-06-20 11:30:00,84.5,74.5,29.50,SE,135,8.0,15.0,72,0.00,,,0.00,Wunderground v.1.15,2013-06-20 16:30:00,
2013-06-20 11:40:00,84.5,74.5,29.50,SSE,148,9.0,15.0,72,0.00,,,0.00,Wunderground v.1.15,2013-06-20 16:40:00,
2013-06-20 11:50:00,84.4,74.8,29.50,SE,131,9.0,15.0,73,0.00,,,0.00,Wunderground v.1.15,2013-06-20 16:50:00,
2013-06-20 12:05:00,84.9,75.3,29.49,SSE,165,9.0,9.0,73,0.00,,,0.00,Wunderground v.1.15,2013-06-20 17:05:00,
2013-06-20 12:15:00,85.6,75.5,29.49,WSW,238,9.0,9.0,72,0.00,,,0.00,Wunderground v.1.15,2013-06-20 17:15:00,
2013-06-20 12:25:00,86.0,75.9,29.49,SSE,163,10.0,15.0,72,0.00,,,0.00,Wunderground v.1.15,2013-06-20 17:25:00,
2013-06-20 12:35:00,86.3,75.8,29.49,ESE,121,10.0,15.0,71,0.00,,,0.00,Wunderground v.1.15,2013-06-20 17:35:00,
2013-06-20 12:45:00,86.5,76.0,29.49,SSW,198,11.0,11.0,71,0.00,,,0.00,Wunderground v.1.15,2013-06-20 17:45:00,
2013-06-20 12:50:00,86.9,75.9,29.49,SSE,160,9.0,15.0,70,0.00,,,0.00,Wunderground v.1.15,2013-06-20 17:50:00,
2013-06-20 13:05:00,87.6,76.2,29.48,SSE,165,9.0,15.0,69,0.00,,,0.00,Wunderground v.1.15,2013-06-20 18:05:00,
2013-06-20 13:15:00,87.5,76.1,29.48,SW,226,12.0,15.0,69,0.00,,,0.00,Wunderground v.1.15,2013-06-20 18:15:00,
2013-06-20 13:25:00,87.7,76.7,29.48,SE,132,13.0,21.0,70,0.00,,,0.00,Wunderground v.1.15,2013-06-20 18:25:00,
2013-06-20 13:35:00,87.7,75.8,29.47,SSE,148,13.0,13.0,68,0.00,,,0.00,Wunderground v.1.15,2013-06-20 18:35:00,
2013-06-20 13:45:00,88.0,76.5,29.47,WSW,253,10.0,10.0,69,0.00,,,0.00,Wunderground v.1.15,2013-06-20 18:45:00,
2013-06-20 13:50:00,88.5,76.6,29.47,SE,143,9.0,15.0,68,0.00,,,0.00,Wunderground v.1.15,2013-06-20 18:50:00,
2013-06-20 14:01:00,89.0,76.2,29.47,South,177,10.0,15.0,66,0.00,,,0.00,Wunderground v.1.15,2013-06-20 19:01:00,
2013-06-20 14:10:00,89.0,76.6,29.47,SE,124,9.0,15.0,67,0.00,,,0.00,Wunderground v.1.15,2013-06-20 19:10:00,
2013-06-20 14:20:00,89.1,76.3,29.46,East,100,10.0,15.0,66,0.00,,,0.00,Wunderground v.1.15,2013-06-20 19:20:00,
2013-06-20 14:25:00,89.1,77.2,29.46,SSE,158,10.0,15.0,68,0.00,,,0.00,Wunderground v.1.15,2013-06-20 19:25:00,
2013-06-20 14:35:00,89.3,76.4,29.46,SSE,150,9.0,15.0,66,0.00,,,0.00,Wunderground v.1.15,2013-06-20 19:35:00,
2013-06-20 14:45:00,89.4,76.1,29.46,South,169,11.0,11.0,65,0.00,,,0.00,Wunderground v.1.15,2013-06-20 19:45:00,
2013-06-20 14:55:00,89.6,76.3,29.45,SSE,162,10.0,10.0,65,0.00,,,0.00,Wunderground v.1.15,2013-06-20 19:55:00,
2013-06-20 15:05:00,90.0,76.6,29.45,ESE,120,10.0,16.0,65,0.00,,,0.00,Wunderground v.1.15,2013-06-20 20:05:00,
2013-06-20 15:15:00,90.4,76.1,29.45,SW,217,10.0,15.0,63,0.00,,,0.00,Wunderground v.1.15,2013-06-20 20:15:00,
2013-06-20 15:25:00,90.9,77.0,29.45,SSE,158,9.0,15.0,64,0.00,,,0.00,Wunderground v.1.15,2013-06-20 20:25:00,
2013-06-20 15:35:00,90.5,75.2,29.44,South,172,13.0,15.0,61,0.00,,,0.00,Wunderground v.1.15,2013-06-20 20:35:00,
2013-06-20 15:45:00,90.5,76.7,29.44,SE,134,11.0,11.0,64,0.00,,,0.00,Wunderground v.1.15,2013-06-20 20:45:00,
2013-06-20 15:55:00,90.7,76.4,29.44,SE,139,10.0,15.0,63,0.00,,,0.00,Wunderground v.1.15,2013-06-20 20:55:00,
2013-06-20 16:05:00,90.7,75.9,29.44,SSW,208,11.0,15.0,62,0.00,,,0.00,Wunderground v.1.15,2013-06-20 21:05:00,
2013-06-20 16:15:00,91.0,76.2,29.43,South,180,9.0,15.0,62,0.00,,,0.00,Wunderground v.1.15,2013-06-20 21:15:00,
2013-06-20 16:20:00,91.1,76.3,29.43,SW,222,10.0,15.0,62,0.00,,,0.00,Wunderground v.1.15,2013-06-20 21:20:00,
2013-06-20 16:30:00,91.3,76.0,29.43,SSE,148,10.0,10.0,61,0.00,,,0.00,Wunderground v.1.15,2013-06-20 21:30:00,
2013-06-20 16:40:00,91.0,75.7,29.43,SE,136,12.0,15.0,61,0.00,,,0.00,Wunderground v.1.15,2013-06-20 21:40:00,
2013-06-20 16:50:00,90.9,75.6,29.42,SE,139,11.0,15.0,61,0.00,,,0.00,Wunderground v.1.15,2013-06-20 21:50:00,
2013-06-20 17:05:00,91.1,75.8,29.42,WSW,250,9.0,9.0,61,0.00,,,0.00,Wunderground v.1.15,2013-06-20 22:05:00,
2013-06-20 17:15:00,91.2,75.4,29.42,SE,128,10.0,15.0,60,0.00,,,0.00,Wunderground v.1.15,2013-06-20 22:15:00,
2013-06-20 17:20:00,91.1,75.3,29.42,SE,134,10.0,15.0,60,0.00,,,0.00,Wunderground v.1.15,2013-06-20 22:20:00,
2013-06-20 17:30:00,90.5,75.7,29.41,SSE,148,13.0,15.0,62,0.00,,,0.00,Wunderground v.1.15,2013-06-20 22:30:00,
2013-06-20 17:40:00,90.6,74.8,29.41,SW,229,13.0,13.0,60,0.00,,,0.00,Wunderground v.1.15,2013-06-20 22:40:00,
2013-06-20 17:50:00,90.8,75.0,29.40,SSW,211,10.0,15.0,60,0.00,,,0.00,Wunderground v.1.15,2013-06-20 22:50:00,
2013-06-20 18:05:00,90.4,75.1,29.40,SSE,160,11.0,11.0,61,0.00,,,0.00,Wunderground v.1.15,2013-06-20 23:05:00,
2013-06-20 18:15:00,90.4,75.1,29.40,South,172,12.0,15.0,61,0.00,,,0.00,Wunderground v.1.15,2013-06-20 23:15:00,
2013-06-20 18:25:00,90.2,74.9,29.40,ESE,121,12.0,12.0,61,0.00,,,0.00,Wunderground v.1.15,2013-06-20 23:25:00,
2013-06-20 18:35:00,90.1,75.3,29.41,SE,141,10.0,10.0,62,0.00,,,0.00,Wunderground v.1.15,2013-06-20 23:35:00,
2013-06-20 18:45:00,89.9,74.6,29.40,SSE,166,12.0,15.0,61,0.00,,,0.00,Wunderground v.1.15,2013-06-20 23:45:00,
2013-06-20 18:55:00,89.8,75.0,29.40,SSE,160,11.0,15.0,62,0.00,,,0.00,Wunderground v.1.15,2013-06-20 23:55:00,
2013-06-20 19:05:00,89.5,74.8,29.40,SSE,154,11.0,11.0,62,0.00,,,0.00,Wunderground v.1.15,2013-06-21 00:05:00,
2013-06-20 19:15:00,89.3,74.6,29.40,SE,128,10.0,10.0,62,0.00,,,0.00,Wunderground v.1.15,2013-06-21 00:15:00,
2013-06-20 19:20:00,89.2,75.0,29.41,SW,233,11.0,12.0,63,0.00,,,0.00,Wunderground v.1.15,2013-06-21 00:20:00,
2013-06-20 19:30:00,88.9,75.1,29.41,SW,224,8.0,15.0,64,0.00,,,0.00,Wunderground v.1.15,2013-06-21 00:30:00,
2013-06-20 19:40:00,88.8,75.0,29.41,SE,134,8.0,15.0,64,0.00,,,0.00,Wunderground v.1.15,2013-06-21 00:40:00,
2013-06-20 19:50:00,88.4,74.7,29.41,SE,134,8.0,8.0,64,0.00,,,0.00,Wunderground v.1.15,2013-06-21 00:50:00,
2013-06-20 19:55:00,88.3,74.6,29.41,SSE,148,8.0,15.0,64,0.00,,,0.00,Wunderground v.1.15,2013-06-21 00:55:00,
2013-06-20 20:05:00,87.8,74.6,29.41,SSE,160,7.0,15.0,65,0.00,,,0.00,Wunderground v.1.15,2013-06-21 01:05:00,
2013-06-20 20:15:00,87.2,74.5,29.41,SE,138,8.0,15.0,66,0.00,,,0.00,Wunderground v.1.15,2013-06-21 01:15:00,
2013-06-20 20:20:00,87.0,74.3,29.42,SSE,153,9.0,15.0,66,0.00,,,0.00,Wunderground v.1.15,2013-06-21 01:20:00,
2013-06-20 20:30:00,86.5,74.2,29.42,SE,137,7.0,15.0,67,0.00,,,0.00,Wunderground v.1.15,2013-06-21 01:30:00,
2013-06-20 20:40:00,86.1,74.3,29.42,South,171,6.0,15.0,68,0.00,,,0.00,Wunderground v.1.15,2013-06-21 01:40:00,
2013-06-20 20:50:00,85.7,74.4,29.42,SSE,164,7.0,15.0,69,0.00,,,0.00,Wunderground v.1.15,2013-06-21 01:50:00,
2013-06-20 20:55:00,85.5,74.2,29.42,SSE,165,7.0,15.0,69,0.00,,,0.00,Wunderground v.1.15,2013-06-21 01:55:00,
2013-06-20 21:05:00,85.1,74.2,29.42,SSE,158,6.0,6.0,70,0.00,,,0.00,Wunderground v.1.15,2013-06-21 02:05:00,
2013-06-20 21:10:00,84.9,74.0,29.42,SSE,159,6.0,15.0,70,0.00,,,0.00,Wunderground v.1.15,2013-06-21 02:10:00,
2013-06-20 21:20:00,84.5,74.1,29.43,SE,140,5.0,15.0,71,0.00,,,0.00,Wunderground v.1.15,2013-06-21 02:20:00,
2013-06-20 21:25:00,84.3,74.3,29.43,SSE,167,5.0,15.0,72,0.00,,,0.00,Wunderground v.1.15,2013-06-21 02:25:00,
2013-06-20 21:35:00,83.9,73.9,29.43,ESE,120,5.0,5.0,72,0.00,,,0.00,Wunderground v.1.15,2013-06-21 02:35:00,
2013-06-20 21:45:00,83.5,73.9,29.44,SSE,148,6.0,6.0,73,0.00,,,0.00,Wunderground v.1.15,2013-06-21 02:45:00,
2013-06-20 21:55:00,83.1,73.9,29.44,South,173,6.0,15.0,74,0.00,,,0.00,Wunderground v.1.15,2013-06-21 02:55:00,
2013-06-20 22:05:00,82.6,73.9,29.45,SE,127,5.0,5.0,75,0.00,,,0.00,Wunderground v.1.15,2013-06-21 03:05:00,
2013-06-20 22:15:00,82.4,74.1,29.46,ESE,114,4.0,15.0,76,0.00,,,0.00,Wunderground v.1.15,2013-06-21 03:15:00,
2013-06-20 22:25:00,82.1,74.2,29.46,SE,131,5.0,15.0,77,0.00,,,0.00,Wunderground v.1.15,2013-06-21 03:25:00,
2013-06-20 22:35:00,81.8,74.3,29.46,SSE,150,5.0,15.0,78,0.00,,,0.00,Wunderground v.1.15,2013-06-21 03:35:00,
2013-06-20 22:45:00,81.5,74.4,29.47,SE,143,5.0,5.0,79,0.00,,,0.00,Wunderground v.1.15,2013-06-21 03:45:00,
2013-06-20 22:55:00,81.3,74.2,29.47,SE,132,5.0,15.0,79,0.00,,,0.00,Wunderground v.1.15,2013-06-21 03:55:00,
2013-06-20 23:00:00,81.1,74.3,29.47,SE,138,5.0,5.0,80,0.00,,,0.00,Wunderground v.1.15,2013-06-21 04:00:00,
2013-06-20 23:05:00,80.9,74.1,29.47,SE,141,4.0,15.0,80,0.00,,,0.00,Wunderground v.1.15,2013-06-21 04:05:00,
2013-06-20 23:10:00,80.8,74.4,29.48,SE,141,4.0,4.0,81,0.00,,,0.00,Wunderground v.1.15,2013-06-21 04:10:00,
2013-06-20 23:15:00,80.7,74.3,29.48,SE,134,5.0,5.0,81,0.00,,,0.00,Wunderground v.1.15,2013-06-21 04:15:00,
2013-06-20 23:20:00,80.7,74.3,29.47,SE,138,5.0,15.0,81,0.00,,,0.00,Wunderground v.1.15,2013-06-21 04:20:00,
2013-06-20 23:30:00,80.5,74.1,29.47,SE,131,6.0,6.0,81,0.00,,,0.00,Wunderground v.1.15,2013-06-21 04:30:00,
2013-06-20 23:35:00,80.5,74.1,29.47,SE,127,6.0,15.0,81,0.00,,,0.00,Wunderground v.1.15,2013-06-21 04:35:00,
2013-06-20 23:45:00,80.2,74.2,29.47,SE,141,4.0,15.0,82,0.00,,,0.00,Wunderground v.1.15,2013-06-21 04:45:00,
2013-06-20 23:55:00,79.8,73.8,29.47,ESE,114,5.0,15.0,82,0.00,,,0.00,Wunderground v.1.15,2013-06-21 04:55:00,